Regional Weather Roundup
Issued by NWS

Home | Current Version | Previous Version | Text Only | Print | Product List | Glossary Off
Versions: 1 2 3 4 5 6 7 8 9 10 11 12 13 14 15 16 17 18 19 20 21 22 23 24 25 26 27 28 29 30 31 32 33 34 35 36 37 38 39 40 41 42 43 44 45 46 47 48 49 50

672
ASUS43 KMPX 290810
RWRMN
WEATHER ROUNDUP FOR MINNESOTA
NATIONAL WEATHER SERVICE TWIN CITIES/CHANHASSEN MN
300 AM CDT THU JUN 29 2017


NOTE: "FAIR" INDICATES FEW OR NO CLOUDS BELOW 12,000 FEET WITH NO
SIGNIFICANT WEATHER AND/OR OBSTRUCTIONS TO VISIBILITY. N/A MEANS
CURRENT SKY AND/OR WEATHER CONDITIONS ARE NOT AVAILABLE.

MNZ060>063-068>070-290900-
   Twin Cities Metro

CITY           SKY/WX    TMP DP  RH WIND       PRES   REMARKS
TWIN CITIES    MOCLDY    68  59  73 NW13      29.63S
ST PAUL        CLOUDY    68  60  75 W14       29.63R
CRYSTAL        MOCLDY    66  57  72 NW12      29.62S
BLAINE         MOCLDY    66  61  82 W10       29.63R
LAKEVILLE      CLEAR     63  59  88 W6        29.64S
EDEN PRAIRIE   PTCLDY    66  59  78 W8        29.63S
SOUTH ST PAUL  CLOUDY    68  59  73 W7        29.63R
LAKE ELMO      CLOUDY    68  61  77 W9        29.63R
$$
MNZ001>005-007-008-013>017-022>024-027-028-290900-
   Northwest Minnesota

CITY           SKY/WX    TMP DP  RH WIND       PRES   REMARKS
BEMIDJI        CLOUDY    60  58  95 N6        29.68R
HALLOCK        FOG       54  52  94 CALM      29.72R VSB 1/2
ROSEAU         HAZE      57  52  82 CALM      29.71S VSB 3/4
WARROAD        MOCLDY    55  52  88 NW5       29.71S FOG
THIEF RVR FALL CLOUDY    59  58  96 NW5       29.72S
CROOKSTON      CLOUDY    61  59  94 CALM      29.72S
FOSSTON        CLOUDY    57  57 100 NW6       29.71S
DETROIT LAKES  CLOUDY    61  59  94 N9        29.70F
MOORHEAD       CLOUDY    61  59  94 N10       29.71R
PARK RAPIDS    CLOUDY    61  57  87 N9        29.67S
MAHNOMEN       CLOUDY    59  58  98 NW9       29.70S
$$
MNZ006-009>011-018-025>026-290900-
   North Central Minnesota

CITY           SKY/WX    TMP DP  RH WIND       PRES   REMARKS
BAUDETTE       CLOUDY    59  59 100 NW8       29.68S
FLAG ISLAND    CLOUDY    61  57  88 N9        29.69S
INTL FALLS     LGT RAIN  59  58  96 N3        29.65S FOG
WASKISH        CLOUDY    59  57  94 NW6       29.68R
BIG FORK       CLOUDY    59  57  94 N6        29.64S
LONGVILLE      CLOUDY    61  57  88 NW3       29.65R
GRAND RAPIDS   CLOUDY    59  58  96 N9        29.64R
CRANE LAKE     DRIZZLE   57  55  94 N3        29.64R
ORR            DRIZZLE   57  55  94 N3        29.60R
COOK           CLOUDY    57  57 100 N5        29.61R
WALKER         CLOUDY    59  58  96 NW6       29.66S
$$
MNZ012-019>021-037-290900-
   Northeast Minnesota

CITY           SKY/WX    TMP DP  RH WIND       PRES   REMARKS
DULUTH         LGT RAIN  59  59 100 NW7       29.55R
ELY            DRIZZLE   57  55  94 NE7       29.58R
HIBBING        LGT RAIN  58  58 100 NW9       29.60R
EVELETH        DRIZZLE   60  57  90 N7        29.59S
DULUTH HARBOR  RAIN      52  52 100 S3        29.56S
TWO HARBORS    LGT RAIN  57  54  88 W5        29.53R
SILVER BAY     RAIN      59  57  94 NE9       29.51S
GRAND MARAIS     N/A     55  55 100 NE7       29.52F
G MARAIS ARPRT RAIN      55  52  88 NE10G16   29.57F
$$
MNZ029>031-032-039>041-046>048-054>057-064-290900-
   West Central Minnesota

CITY           SKY/WX    TMP DP  RH WIND       PRES   REMARKS
FERGUS FALLS   CLOUDY    63  61  94 N9        29.68R
WHEATON        CLOUDY    61  57  88 SW3       29.75R FOG
MORRIS         CLOUDY    61  59  94 NW6       29.70R
ALEXANDRIA     CLOUDY    61  59  93 NW9       29.69F
ELBOW LAKE     CLOUDY    62  59  90 N9        29.71R
WADENA         CLOUDY    59  57  94 N7        29.67F
GLENWOOD       PTCLDY    61  57  88 NW3       29.69S
APPLETON       CLEAR     57  55  94 W6        29.72R
BENSON         CLEAR     57  55  94 NW5       29.72R
ORTONVILLE     CLEAR     61  57  88 W3        29.73R
MADISON        CLEAR     61  61 100 W5        29.74R
WILLMAR        FAIR      61  59  94 W3        29.71R
$$
MNZ033>034-036-042>043-049>051-058-059-290900-
   Central Minnesota

CITY           SKY/WX    TMP DP  RH WIND       PRES   REMARKS
ST CLOUD       CLOUDY    64  60  87 NW10      29.65R
SAUK CENTRE    PTSUNNY   61  58  90 NW8       29.67S
PAYNESVILLE    PTCLDY    61  58  87 CALM      29.68S
AITKIN         CLOUDY    59  57  94 NW6       29.62R
PINE RIVER     LGT RAIN  61  61 100 MISG      29.69R
BRAINERD       LGT RAIN  61  60  97 NW9       29.65R
STAPLES        CLOUDY    61  57  88 NW10      29.66F
LONG PRAIRIE   CLOUDY    61  55  82 NW10      29.68S
LITTLE FALLS   CLOUDY    61  55  82 NW8       29.66S
LITCHFIELD     PTCLDY    64  61  88 NW6       29.67F
BUFFALO        PTCLDY    63  58  83 W5        29.67R
MAPLE LAKE     MOCLDY    64  61  88 W6        29.67R
HUTCHINSON     CLOUDY    62  59  92 W6        29.69S
$$
MNZ037-044-045-052-053-290900-
   East Central Minnesota

CITY           SKY/WX    TMP DP  RH WIND       PRES   REMARKS
PRINCETON      CLOUDY    64  61  88 W9        29.63F
MORA           CLOUDY    61  55  82 NW7       29.63R
CAMBRIDGE      CLOUDY    64  57  77 W6        29.61S
RUSH CITY      CLOUDY    63  57  82 W3        29.62R
MOOSE LAKE     CLOUDY    59  57  94 NW3       29.57R
HINCKLEY       CLOUDY    63  59  88 W7G16     29.60R
CLOQUET        CLOUDY    59  57  94 W12G17    29.57S
MCGREGOR       CLOUDY    59  57  94 NW7       29.61S
$$
MNZ071>073-080-081-089-090-097-098-290900-
   Southwest Minnesota

CITY           SKY/WX    TMP DP  RH WIND       PRES   REMARKS
MONTEVIDEO     CLEAR     61  57  88 NW5       29.72R
GRANITE FALLS  CLEAR     59  58  95 W6        29.73S
CANBY          CLEAR     61  58  91 CALM      29.76R
MARSHALL       CLEAR     60  58  92 W8        29.74R
REDWOOD FALLS  CLEAR     62  59  90 W5        29.70S
OLIVIA         CLEAR     59  55  88 W5        29.70R
PIPESTONE      CLEAR     63  57  82 N3        29.75F
WINDOM         CLEAR     59  57  94 NW3       29.73S
WORTHINGTON    CLEAR     61  58  90 NW5       29.75S
JACKSON        CLEAR     61  57  88 CALM      29.73S
TRACY          CLEAR     63  60  90 NW6       29.74R
SLAYTON        CLEAR     58  56  93 W6        29.75S
$$
MNZ065>067-074>077-082>085-091>093-290900-
   South Central Minnesota

CITY           SKY/WX    TMP DP  RH WIND       PRES   REMARKS
MANKATO        CLEAR     64  60  87 W6        29.69R
NEW ULM        CLEAR     63  61  94 NW6       29.70S
ST JAMES       CLEAR     61  59  94 W6        29.72R
FAIRMONT       CLEAR     63  60  90 NW3       29.73R
GLENCOE        CLEAR     63  63  99 W3        29.66F
FARIBAULT      PTCLDY    63  61  94 W6        29.67S
OWATONNA       CLEAR     63  61  94 W7        29.68R
WASECA         CLEAR     63  59  88 W7        29.70R
ALBERT LEA     CLEAR     64  61  88 CALM      29.70R
$$
MNZ078>079-086>088-094>096-290900-
   Southeast Minnesota

CITY           SKY/WX    TMP DP  RH WIND       PRES   REMARKS
ROCHESTER      CLEAR     63  61  93 W8        29.68S
RED WING       CLEAR     66  57  72 W7        29.62R
STANTON        CLEAR     65  59  81 W7        29.64R
DODGE CENTER   CLEAR     63  59  88 W8        29.67F
WINONA         CLEAR     70  63  78 W7G17     29.64R
AUSTIN         CLEAR     63  61  94 SW5       29.70R
PRESTON        CLEAR     64  62  93 W10       29.68R
$$
ABBREVIATIONS USED IN REMARKS
   TC - TEMPERATURES IN CELSIUS
  WCI - WIND CHILL INDEX
   HX - HEAT INDEX
  VSB - VISIBILITY
$$




USA.gov is the U.S. government's official web portal to all federal, state and local government web resources and services.